Location: Fatehalanka
(16.3139°N, 80.8379°E)
Time: 22:12:16
(UTC+00:00)

Cosmos 2233 Rocket - Pass Details

Date: 14 May 2026
Orbit: 952 x 990 km, 82.9° (Epoch: 10 June)

Event Time Altitude Azimuth Distance (km) Brightness Sun altitude
Exits shadow 14:26:21 34° 122° (ESE) 1,531 4.5 -19.9°
Maximum altitude 14:27:50 39° 91° (E) 1,406 4.4 -20.3°
Drops below altitude 10° 14:33:30 10° 24° (NNE) 2,699 6.4 -21.5°
Sets 14:36:09 0° 17° (NNE) 3,640 7.1 -22.0°
